#timestamp,LO_Frequency,Hit,StdDev 
1654884015.8,286047001.1,N
1654884035.6,286046998.1,N
1654884055.5,286046998.2,N
1654884075.3,286046998.5,N
1654884095.1,286047001.2,N
1654884115.9,286047001.1,N
1654884135.7,286046998.2,N
1654884155.5,286047000.7,N
1654884175.4,286047000.6,N
1654884195.2,286047000.2,N
1654884215.1,286047000.0,N
1654884216.0,286047000.0,N
1654884235.8,286047002.4,N
1654884255.6,286047002.1,N
1654884275.5,286047002.2,N
1654884295.3,286047002.1,N
1654884315.1,286047002.3,N
1654884335.9,286047002.3,N
1654884355.7,286047002.3,N
1654884375.6,286047002.4,N
1654884395.4,286047000.2,N
1654884415.2,286047002.3,N
1654884435.1,286047000.1,N
1654884436.0,286047000.1,N
1654884455.8,286046999.9,N
1654884475.6,286046998.4,N
1654884495.5,286046998.5,N
1654884515.3,286046998.5,N
1654884535.2,286046999.5,N
1654884555.9,286046996.9,N
1654884575.7,286046996.6,N
1654884595.6,286046997.2,N
1654884615.4,286046997.6,N
1654884635.2,286046997.6,N
1654884655.1,286046997.3,N
1654884656.0,286046997.3,N
1654884675.8,286046996.6,N
1654884695.7,286046998.0,N
1654884715.5,286046996.2,N
1654884735.3,286046993.4,Y
1654884755.2,286046995.6,P
1654884775.0,286046995.8,N
1654884775.9,286046995.8,N
1654884795.8,286046996.3,N
1654884815.6,286046993.8,Y
1654884835.4,286046997.8,P
1654884855.3,286046997.3,P
1654884875.1,286046997.6,P
1654884895.8,286046997.3,Y
1654884915.7,286047001.1,P
1654884935.5,286047001.2,N
1654884955.4,286046998.4,N
1654884975.2,286046998.1,N
1654884995.0,286047002.8,N
1654884995.9,286047002.8,N
1654885015.8,286046999.9,N
1654885035.6,286047000.1,N
1654885055.4,286047002.6,N
1654885075.3,286047001.0,N
1654885095.1,286047000.4,N
1654885115.9,286047001.3,N
1654885135.7,286047001.8,N
1654885155.5,286047002.1,N
1654885175.4,286046999.7,N
1654885195.2,286047000.8,N
1654885215.0,286046998.3,N
1654885215.9,286046998.3,N
1654885235.8,286047000.5,N
1654885255.6,286047000.4,N
1654885275.5,286047000.3,N
1654885295.3,286047000.0,N
1654885315.1,286047002.2,N
1654885335.9,286047003.9,N
1654885355.7,286047003.9,N
1654885375.5,286047002.6,N
1654885395.4,286047002.5,N
1654885415.2,286047002.1,N
1654885435.1,286047002.5,N
1654885436.0,286047002.5,N
1654885455.8,286047000.2,N
1654885475.6,286047000.5,N
1654885495.5,286047000.5,N
1654885515.3,286047002.0,N
1654885535.2,286047004.3,Y
1654885555.9,286047001.9,P
1654885575.7,286047003.8,P
1654885595.6,286047003.8,P
1654885615.4,286047003.4,N
1654885635.2,286047001.9,N
1654885655.1,286047001.7,N
1654885656.0,286047001.7,N
1654885675.8,286047002.2,N
1654885695.7,286047000.0,N
1654885715.5,286047001.6,N
1654885735.3,286047001.8,N
1654885755.2,286047004.0,Y
1654885775.0,286046999.7,P
1654885775.9,286046999.7,N
1654885795.8,286047002.3,N
1654885815.6,286047000.2,N
1654885835.4,286047002.3,N
1654885855.3,286047000.7,N
1654885875.1,286047002.8,N
1654885895.8,286047000.1,N
1654885915.7,286047002.1,N
1654885935.5,286047001.7,N
1654885955.4,286047001.8,N
1654885975.2,286047004.0,Y
1654885995.0,286047002.1,P
1654885995.9,286047002.1,P
1654886015.8,286047002.1,P
1654886035.6,286047004.2,Y
1654886055.4,286047002.8,P
1654886075.3,286047000.3,N
1654886095.1,286047001.0,N
1654886115.9,286046998.2,N
1654886135.7,286047000.8,N
1654886155.5,286047000.4,N
1654886175.4,286047000.5,N
1654886195.2,286047000.5,N
1654886215.0,286047000.3,N
1654886215.9,286047000.3,N
1654886235.8,286047001.1,N
1654886255.6,286046998.2,N
1654886275.5,286046998.5,N
1654886295.3,286047000.8,N
1654886315.1,286046999.9,N
1654886335.9,286047000.5,N
1654886355.7,286046998.1,N
1654886375.5,286047000.3,N
1654886395.4,286047000.3,N
1654886415.2,286046999.8,N
1654886435.1,286047000.0,N
1654886436.0,286047000.0,N
1654886455.8,286047002.3,N
1654886475.6,286047000.0,N
1654886495.5,286046999.8,N
1654886515.3,286046999.9,N
1654886535.1,286046999.9,N
1654886555.9,286047000.9,N
1654886575.7,286046999.9,N
1654886595.6,286046999.8,N
1654886615.4,286047000.2,N
1654886635.2,286047000.5,N
1654886655.1,286047002.4,N
1654886656.0,286047002.4,N
1654886675.8,286047002.8,N
1654886695.6,286047000.6,N
1654886715.5,286047002.8,N
1654886735.3,286047002.7,N
1654886755.2,286047000.1,N
1654886775.9,286047002.3,N
1654886795.7,286046999.7,N
1654886815.6,286047000.2,N
1654886835.4,286047001.0,N
1654886855.2,286047001.0,N
1654886875.1,286047000.1,N
1654886876.0,286047000.1,N
1654886895.8,286047002.0,N
1654886915.7,286046999.8,N
1654886935.5,286047002.8,N
1654886955.3,286047000.6,N
1654886975.2,286047000.3,N
1654886995.0,286046999.9,N
1654886995.9,286046999.9,N
1654887015.8,286047002.8,N
1654887035.6,286047000.3,N
1654887055.4,286046998.2,N
1654887075.3,286046998.3,N
1654887095.1,286047000.2,N
1654887115.8,286047002.3,N
1654887135.7,286047002.6,N
1654887155.5,286046999.8,N
1654887175.4,286047000.2,N
1654887195.2,286047000.9,N
1654887215.0,286046999.8,N
1654887215.9,286046999.8,N
1654887235.8,286047002.2,N
1654887255.6,286047002.4,N
1654887275.4,286047000.4,N
1654887295.3,286047000.1,N
1654887315.1,286047000.2,N
1654887335.9,286047000.0,N
1654887355.7,286046998.3,N
1654887375.5,286047001.1,N
1654887395.4,286047000.8,N
1654887415.2,286046998.1,N
1654887435.0,286047000.6,N
1654887435.9,286047000.6,N
1654887455.8,286047002.6,N
1654887475.6,286047002.7,N
1654887495.5,286046999.7,N
1654887515.3,286047002.8,N
1654887535.1,286047002.4,N
1654887555.9,286047002.4,N
1654887575.7,286047004.3,N
1654887595.5,286047002.5,N
